Weather History for KGCD - November, 2012

Change the Weather History Date:

Tuesday, November 13, 2012

  Actual Average (KBNO) Record (KBNO)
Temperature  
Mean Temperature 38 °F 34 °F  
Max Temperature 44 °F 46 °F 64 °F (1999)
Min Temperature 33 °F 23 °F -1 °F (1985)
Degree Days  
Heating Degree Days 26 31  
Month to date heating degree days 367  
Since 1 July heating degree days 1417  
Cooling Degree Days 0 0  
Month to date cooling degree days 0  
Year to date cooling degree days 215  
Moisture  
Dew Point 34 °F    
Average Humidity 84    
Maximum Humidity 93    
Minimum Humidity 70    
Precipitation  
Precipitation 0.02 in 0.03 in 0.51 in (1952)
Month to date precipitation 0.46  
Year to date precipitation 8.66  
Sea Level Pressure  
Sea Level Pressure 30.20 in    
Wind  
Wind Speed 7 mph (East)    
Max Wind Speed 14 mph    
Max Gust Speed -    
Visibility 10 miles    
Events Rain , Snow    
T = Trace of Precipitation, MM = Missing Value Source: NWS Daily Summary

Daily Weather History Graph

Daily Weather History Graph

Search for Another Location

Airport or City:

Trip Planner

Search our weather history database for the weather conditions in past years. The results will help you decide how hot, cold, wet, or windy it might be!

Date:

Astronomy

Nov. 13, 2012 Rise Set
Actual Time 6:50 AM PST 4:29 PM PST
Civil Twilight 6:18 AM PST 5:01 PM PST
Nautical Twilight 5:43 AM PST 5:36 PM PST
Astronomical Twilight 5:09 AM PST 6:10 PM PST
Moon 6:34 AM PST (11/13) 4:25 PM PST (11/13)
Length of Visible Light 10h 42m
Length of Day
9h 39m
Waning Crescent, 0% of the Moon is Illuminated
Nov 13
Waning Crescent
Nov 13
New
Nov 20
First Quarter
Nov 28
Full
Dec 6
Last Quarter

Hourly Weather History & Observations

Time (PST) Temp. Windchill Dew Point Humidity Pressure Visibility Wind Dir Wind Speed Gust Speed Precip Events Conditions
12:15 AM 35.6 °F 29.9 °F 33.8 °F 93% 30.28 in 10.0 mi East 6.9 mph - N/A   Overcast
12:35 AM 35.6 °F 29.9 °F 32.0 °F 87% 30.28 in 10.0 mi East 6.9 mph - N/A   Overcast
12:55 AM 35.6 °F 29.2 °F 33.8 °F 93% 30.27 in 10.0 mi East 8.1 mph - N/A   Overcast
1:15 AM 35.6 °F 29.2 °F 32.0 °F 87% 30.27 in 10.0 mi East 8.1 mph - N/A   Mostly Cloudy
1:35 AM 33.8 °F 27.0 °F 32.0 °F 93% 30.27 in 10.0 mi East 8.1 mph - N/A   Mostly Cloudy
1:55 AM 33.8 °F 25.3 °F 32.0 °F 93% 30.26 in 10.0 mi East 11.5 mph - N/A   Overcast
2:15 AM 33.8 °F 24.3 °F 32.0 °F 93% 30.27 in 10.0 mi ENE 13.8 mph - N/A   Mostly Cloudy
2:35 AM 35.6 °F 28.6 °F 33.8 °F 93% 30.26 in 10.0 mi East 9.2 mph - N/A   Overcast
2:55 AM 35.6 °F 28.6 °F 32.0 °F 87% 30.26 in 10.0 mi East 9.2 mph - N/A   Overcast
3:15 AM 35.6 °F 29.2 °F 32.0 °F 87% 30.25 in 10.0 mi East 8.1 mph - N/A   Overcast
3:35 AM 35.6 °F 28.6 °F 33.8 °F 93% 30.25 in 10.0 mi East 9.2 mph - N/A   Overcast
3:55 AM 35.6 °F 29.2 °F 32.0 °F 87% 30.25 in 10.0 mi East 8.1 mph - N/A   Overcast
4:15 AM 35.6 °F 30.7 °F 33.8 °F 93% 30.25 in 10.0 mi ENE 5.8 mph - N/A   Overcast
4:35 AM 35.6 °F 30.7 °F 33.8 °F 93% 30.24 in 10.0 mi East 5.8 mph - N/A   Overcast
4:55 AM 35.6 °F 29.2 °F 32.0 °F 87% 30.25 in 10.0 mi East 8.1 mph - N/A   Overcast
5:15 AM 35.6 °F 28.6 °F 33.8 °F 93% 30.25 in 10.0 mi East 9.2 mph - N/A   Overcast
5:35 AM 35.6 °F 30.7 °F 33.8 °F 93% 30.25 in 10.0 mi East 5.8 mph - N/A   Overcast
5:55 AM 35.6 °F 29.9 °F 32.0 °F 87% 30.24 in 10.0 mi ENE 6.9 mph - N/A   Overcast
6:15 AM 35.6 °F 30.7 °F 32.0 °F 87% 30.24 in 10.0 mi East 5.8 mph - N/A   Overcast
6:35 AM 35.6 °F 31.7 °F 32.0 °F 87% 30.25 in 10.0 mi East 4.6 mph - N/A   Overcast
6:55 AM 35.6 °F 28.6 °F 32.0 °F 87% 30.25 in 10.0 mi East 9.2 mph - N/A   Overcast
7:15 AM 35.6 °F 29.9 °F 33.8 °F 93% 30.25 in 10.0 mi East 6.9 mph - N/A   Overcast
7:35 AM 35.6 °F 29.2 °F 33.8 °F 93% 30.25 in 10.0 mi East 8.1 mph - N/A   Overcast
7:55 AM 37.4 °F 29.8 °F 32.0 °F 81% 30.25 in 10.0 mi East 11.5 mph - N/A   Overcast
8:15 AM 37.4 °F 30.8 °F 32.0 °F 81% 30.24 in 10.0 mi East 9.2 mph - N/A   Overcast
8:35 AM 35.6 °F 29.9 °F 32.0 °F 87% 30.25 in 10.0 mi East 6.9 mph - N/A   Overcast
8:55 AM 37.4 °F 30.3 °F 32.0 °F 81% 30.24 in 10.0 mi ESE 10.4 mph - N/A   Overcast
9:15 AM 37.4 °F 32.8 °F 32.0 °F 81% 30.24 in 10.0 mi East 5.8 mph - N/A   Mostly Cloudy
9:35 AM 37.4 °F 32.8 °F 32.0 °F 81% 30.24 in 10.0 mi East 5.8 mph - N/A   Mostly Cloudy
9:55 AM 39.2 °F 33.6 °F 33.8 °F 81% 30.24 in 10.0 mi East 8.1 mph - 0.01 in   Mostly Cloudy
10:15 AM 39.2 °F 35.9 °F 33.8 °F 81% 30.23 in 10.0 mi East 4.6 mph - N/A   Mostly Cloudy
10:55 AM 41.0 °F 35.8 °F 33.8 °F 76% 30.23 in 10.0 mi East 8.1 mph - N/A   Overcast
11:15 AM 41.0 °F 37.1 °F 33.8 °F 76% 30.22 in 10.0 mi East 5.8 mph - N/A   Overcast
11:35 AM 41.0 °F 38.0 °F 33.8 °F 76% 30.21 in 10.0 mi ESE 4.6 mph - N/A   Overcast
11:55 AM 42.8 °F 40.1 °F 33.8 °F 70% 30.20 in 10.0 mi ENE 4.6 mph - N/A   Overcast
12:15 PM 42.8 °F 39.3 °F 35.6 °F 76% 30.20 in 10.0 mi East 5.8 mph - N/A   Overcast
12:35 PM 42.8 °F 38.6 °F 33.8 °F 70% 30.19 in 10.0 mi ENE 6.9 mph - N/A   Overcast
12:55 PM 42.8 °F 39.3 °F 35.6 °F 76% 30.19 in 10.0 mi East 5.8 mph - N/A   Mostly Cloudy
1:15 PM 42.8 °F 38.6 °F 35.6 °F 76% 30.18 in 10.0 mi East 6.9 mph - N/A   Mostly Cloudy
1:35 PM 42.8 °F 40.1 °F 35.6 °F 76% 30.17 in 10.0 mi East 4.6 mph - N/A   Mostly Cloudy
1:55 PM 42.8 °F 39.3 °F 35.6 °F 76% 30.17 in 10.0 mi ENE 5.8 mph - N/A   Scattered Clouds
2:15 PM 44.6 °F 42.2 °F 35.6 °F 71% 30.15 in 10.0 mi East 4.6 mph - N/A   Clear
2:35 PM 44.6 °F 41.4 °F 35.6 °F 71% 30.15 in 10.0 mi ENE 5.8 mph - N/A   Clear
2:55 PM 44.6 °F 43.1 °F 35.6 °F 71% 30.15 in 10.0 mi East 3.5 mph - N/A   Clear
3:15 PM 44.6 °F 42.2 °F 35.6 °F 71% 30.15 in 10.0 mi East 4.6 mph - N/A   Clear
3:35 PM 44.6 °F 43.1 °F 35.6 °F 71% 30.15 in 10.0 mi ENE 3.5 mph - N/A   Scattered Clouds
3:55 PM 42.8 °F 40.1 °F 35.6 °F 76% 30.15 in 10.0 mi ENE 4.6 mph - N/A   Clear
4:15 PM 42.8 °F 39.3 °F 35.6 °F 76% 30.14 in 10.0 mi ESE 5.8 mph - N/A   Scattered Clouds
4:35 PM 42.8 °F 38.6 °F 35.6 °F 76% 30.14 in 10.0 mi East 6.9 mph - N/A   Scattered Clouds
4:55 PM 42.8 °F 39.3 °F 35.6 °F 76% 30.14 in 10.0 mi ENE 5.8 mph - N/A   Scattered Clouds
5:15 PM 42.8 °F 39.3 °F 35.6 °F 76% 30.14 in 10.0 mi East 5.8 mph - N/A   Mostly Cloudy
5:35 PM 42.8 °F 40.1 °F 35.6 °F 76% 30.14 in 10.0 mi East 4.6 mph - N/A   Overcast
5:55 PM 41.0 °F 36.4 °F 35.6 °F 81% 30.14 in 10.0 mi ESE 6.9 mph - N/A   Overcast
6:15 PM 41.0 °F 38.0 °F 35.6 °F 81% 30.14 in 10.0 mi SE 4.6 mph - N/A   Overcast
6:35 PM 42.8 °F 38.0 °F 35.6 °F 76% 30.15 in 10.0 mi SE 8.1 mph - N/A   Overcast
6:55 PM 41.0 °F - 35.6 °F 81% 30.15 in 10.0 mi Calm Calm - N/A Rain Light Rain
7:15 PM 39.2 °F - 35.6 °F 87% 30.15 in 10.0 mi Calm Calm - N/A Rain Light Rain
7:35 PM 39.2 °F 34.2 °F 35.6 °F 87% 30.15 in 10.0 mi ESE 6.9 mph - N/A   Light Drizzle
7:55 PM 37.4 °F 32.8 °F 35.6 °F 93% 30.16 in 10.0 mi ESE 5.8 mph - 0.01 in Snow Light Snow
8:15 PM 39.2 °F - 35.6 °F 87% 30.16 in 10.0 mi Calm Calm - N/A Rain Light Rain
8:35 PM 37.4 °F 34.9 °F 35.6 °F 93% 30.17 in 10.0 mi ENE 3.5 mph - N/A   Overcast
8:55 PM 37.4 °F 34.9 °F 35.6 °F 93% 30.17 in 10.0 mi ESE 3.5 mph - N/A Rain Rain
9:15 PM 37.4 °F 34.9 °F 35.6 °F 93% 30.17 in 10.0 mi ESE 3.5 mph - N/A   Overcast
9:35 PM 37.4 °F 33.8 °F 35.6 °F 93% 30.17 in 10.0 mi ENE 4.6 mph - N/A   Overcast
9:55 PM 37.4 °F - 35.6 °F 93% 30.17 in 10.0 mi Calm Calm - N/A   Overcast
10:15 PM 37.4 °F - 35.6 °F 93% 30.17 in 10.0 mi Calm Calm - N/A   Overcast
10:35 PM 37.4 °F 32.1 °F 35.6 °F 93% 30.17 in 10.0 mi ESE 6.9 mph - N/A   Overcast
10:55 PM 39.2 °F - 35.6 °F 87% 30.17 in 10.0 mi Calm Calm - N/A   Overcast
11:15 PM 37.4 °F 32.8 °F 35.6 °F 93% 30.17 in 10.0 mi SE 5.8 mph - N/A   Overcast
11:35 PM 37.4 °F 32.1 °F 35.6 °F 93% 30.17 in 10.0 mi East 6.9 mph - N/A   Overcast
11:55 PM 37.4 °F 32.8 °F 35.6 °F 93% 30.19 in 10.0 mi East 5.8 mph - N/A   Overcast